Weather History for Elazig, Turkey

Change the Weather History Date:

Tuesday, February 26, 2013

  Actual Average Record
Temperature  
Mean Temperature 40 °F -  
Max Temperature 56 °F 45 °F 59 °F (2006)
Min Temperature 25 °F 26 °F 15 °F (2007)
Degree Days  
Heating Degree Days 24    
Moisture  
Dew Point 32 °F    
Average Humidity 75    
Maximum Humidity 100    
Minimum Humidity 32    
Precipitation  
Precipitation 0.00 in - - ()
Sea Level Pressure  
Sea Level Pressure 30.22 in    
Wind  
Wind Speed 4 mph ()    
Max Wind Speed 9 mph    
Max Gust Speed -    
Visibility 7.5 miles    
Events      
Averages and records for this station are not official NWS values.
T = Trace of Precipitation, MM = Missing Value Source: Averaged Metar Reports

Daily Weather History Graph

Daily Weather History Graph

Search for Another Location

Airport:

Trip Planner

Search our weather history database for the weather conditions in past years. The results will help you decide how hot, cold, wet, or windy it might be!

Date:

Astronomy

Feb. 26, 2013 Rise Set
Actual Time 5:59 AM EET 5:12 PM EET
Civil Twilight 5:32 AM EET 5:39 PM EET
Nautical Twilight 5:01 AM EET 6:10 PM EET
Astronomical Twilight 4:31 AM EET 6:40 PM EET
Moon 6:05 PM EET (2/26) 5:51 AM EET (2/26)
Length of Visible Light 12h 06m
Length of Day
11h 13m
Full, 100% of the Moon is Illuminated
Feb 26
Full
Mar 4
Last Quarter
Mar 11
New
Mar 19
First Quarter
Mar 27
Full

Hourly Weather History & Observations

Time (EET) Temp. Windchill Dew Point Humidity Pressure Visibility Wind Dir Wind Speed Gust Speed Precip Events Conditions
12:50 AM 30.2 °F 24.3 °F 28.4 °F 93% 30.30 in - SSW 5.8 mph - N/A   Clear
1:50 AM 32.0 °F 28.7 °F 30.2 °F 93% 30.30 in - NW 3.5 mph - N/A   Clear
2:00 AM 31 °F - 29 °F 91% 30.34 in 6 mi NW 3.5 mph - -  
2:50 AM 28.4 °F 24.6 °F 26.6 °F 93% 30.27 in - SSW 3.5 mph - N/A   Clear
3:50 AM 30.2 °F 26.7 °F 28.4 °F 93% 30.27 in - West 3.5 mph - N/A   Clear
4:50 AM 30.2 °F 24.3 °F 28.4 °F 93% 30.27 in - WSW 5.8 mph - N/A   Clear
5:50 AM 26.6 °F - 26.6 °F 100% 30.27 in - West 2.3 mph - N/A   Clear
6:50 AM 30.2 °F 25.4 °F 28.4 °F 93% 30.30 in - WSW 4.6 mph - N/A   Clear
7:50 AM 37.4 °F - 33.8 °F 87% 30.30 in 6.2 mi West 2.3 mph - N/A   Partly Cloudy
8:00 AM 37 °F - 34 °F 83% 30.38 in 12 mi West 2.3 mph - -   Scattered Clouds
8:50 AM 41.0 °F 37.1 °F 32.0 °F 70% 30.30 in 6.2 mi East 5.8 mph - N/A   Partly Cloudy
9:50 AM 44.6 °F 39.7 °F 32.0 °F 61% 30.27 in 6.2 mi ENE 9.2 mph - N/A   Partly Cloudy
10:50 AM 46.4 °F 42.9 °F 32.0 °F 57% 30.24 in 6.2 mi ENE 6.9 mph - N/A   Partly Cloudy
11:50 AM 50.0 °F - 33.8 °F 54% 30.21 in 6.2 mi East 8.1 mph - N/A   Partly Cloudy
12:50 PM 51.8 °F - 33.8 °F 50% 30.18 in 6.2 mi East 9.2 mph - N/A   Partly Cloudy
1:50 PM 55.4 °F - 33.8 °F 44% 30.15 in 6.2 mi ENE 9.2 mph - N/A   Partly Cloudy
2:00 PM 55 °F - 34 °F 32% 30.21 in 12 mi ENE 9.2 mph - -   Scattered Clouds
2:50 PM 55.4 °F - 33.8 °F 44% 30.15 in 6.2 mi East 8.1 mph - N/A   Partly Cloudy
3:50 PM 55.4 °F - 33.8 °F 44% 30.15 in 6.2 mi ENE 8.1 mph - N/A   Partly Cloudy
4:50 PM 51.8 °F - 35.6 °F 54% 30.12 in - East 5.8 mph - N/A   Clear
5:50 PM 48.2 °F - 35.6 °F 62% 30.12 in - ENE 4.6 mph - N/A   Clear
6:50 PM 41.0 °F - 33.8 °F 76% 30.15 in - Variable 2.3 mph - N/A   Clear
7:50 PM 37.4 °F 34.9 °F 33.8 °F 87% 30.15 in - SSW 3.5 mph - N/A   Clear
8:00 PM 38 °F - 33 °F 77% 30.23 in 12 mi SSW 3.5 mph - -  
8:50 PM 37.4 °F 33.8 °F 33.8 °F 87% 30.15 in - SW 4.6 mph - N/A   Clear
9:50 PM 33.8 °F 28.6 °F 32.0 °F 93% 30.15 in - SW 5.8 mph - N/A   Clear
10:50 PM 32.0 °F - 30.2 °F 93% 30.15 in - Variable 2.3 mph - N/A   Clear
11:50 PM 32.0 °F - 30.2 °F 93% 30.15 in - WSW 1.2 mph - N/A   Clear